Location: Ellen Observatory
(29.0040°N, 81.3000°W)
Time: 10:59:16
(UTC-05:00)

OTV 5 (USA 277) - Visible Passes

Search period start: 10 December 2018 00:00
Search period end: 20 December 2018 00:00
Orbit: 341 x 347 km, 54.5° (Epoch: 09 December)

Date Brightness Start Highest point End Pass type
(mag) Time Alt. Az. Time Alt. Az. Time Alt. Az.
14 Dec ? 06:16:41 10° NNE 06:18:07 13° NE 06:19:34 10° ENE visible
15 Dec ? 06:39:06 10° NNW 06:41:55 51° NE 06:44:43 10° SE visible
16 Dec ? 05:30:10 12° NNE 05:30:33 12° NE 05:31:51 10° ENE visible
17 Dec ? 05:53:28 33° N 05:54:21 48° NE 05:57:08 10° SE visible
18 Dec ? 06:16:51 21° W 06:17:54 27° SW 06:20:25 10° S visible
19 Dec ? 05:08:51 16° ESE 05:08:51 16° ESE 05:09:33 10° ESE visible
